Theta_e
321 323 325 326 331 330 330 331 331 330 330 327 328 328 328 327 328 328 330 333 331 329 327 328 330 331 330 328 326 326 328 330 329 328 329 329 331 332 334 332 334 334 334 333 334 337 332 330 329 328 328 327 326 326 327 328 330 330 328 326 325 323 325 326 325 324 322 320 326 326 327 331 331 329 327 327 329 330 330 329 330 330 330 331 331
322 322 323 325 329 329 329 330 330 330 327 326 326 327 328 329 329 329 330 331 330 328 328 328 330 329 326 325 324 325 326 325 324 325 326 329 330 330 330 330 331 332 333 333 333 332 331 331 330 328 327 326 327 328 329 331 330 330 329 326 327 323 322 326 326 322 318 317 319 319 321 324 327 327 328 329 330 329 328 329 328 328 329 330 330
322 322 322 324 328 328 329 329 330 330 326 325 326 327 328 329 330 330 330 330 329 329 331 330 331 330 325 323 324 322 326 326 324 326 330 329 329 329 329 330 330 330 331 332 331 331 330 329 330 329 329 329 328 326 327 327 327 327 326 325 323 324 323 327 325 325 318 320 319 317 313 313 318 322 325 327 329 328 328 328 329 329 330 329 329
321 320 321 325 327 327 327 328 328 327 325 325 326 327 329 329 329 329 329 329 329 329 329 329 331 329 327 328 325 323 322 325 326 327 327 327 328 329 329 329 328 328 330 331 331 331 329 328 330 329 329 330 329 326 326 326 326 325 325 326 323 320 321 323 328 327 323 319 313 313 313 313 311 313 318 323 327 327 327 327 328 328 328 328 328
320 319 320 324 325 326 326 328 325 326 325 326 326 327 329 329 329 329 329 328 330 329 328 329 329 325 324 324 324 323 322 321 321 321 325 327 326 325 326 324 324 324 324 326 328 327 328 329 328 328 329 331 331 329 327 328 328 326 325 325 324 321 320 321 324 326 324 324 318 314 311 310 309 315 318 318 323 324 325 326 328 326 326 326 327
321 320 321 324 324 325 327 327 327 326 325 325 326 327 328 330 331 330 329 329 328 328 327 326 326 322 319 318 317 317 316 317 317 318 319 322 323 324 327 327 327 324 325 327 328 327 325 328 328 329 327 331 328 329 329 329 329 328 327 326 324 324 322 320 322 325 323 324 323 319 316 312 313 318 316 312 323 324 324 326 326 327 325 326 327
321 321 322 320 320 323 325 326 327 326 325 325 326 327 329 331 331 330 329 328 328 327 325 326 325 323 319 318 317 316 316 320 320 321 320 321 322 320 322 325 326 325 325 325 325 326 326 327 327 327 327 326 329 326 325 326 328 329 328 327 326 325 322 317 320 322 321 322 325 323 325 324 322 315 312 315 313 319 322 322 323 326 326 327 327
318 317 319 320 320 322 323 324 325 324 325 326 327 329 330 330 329 328 328 327 326 325 325 325 324 323 320 319 319 318 320 320 321 320 322 322 320 321 323 323 324 324 324 325 325 326 325 324 325 325 326 325 326 323 324 325 326 328 327 327 325 324 322 321 319 321 318 319 322 321 323 323 324 323 320 315 314 312 315 321 322 324 325 325 326
318 317 318 319 322 324 325 325 326 325 326 327 329 330 329 328 326 326 325 325 324 325 324 324 325 325 325 324 324 323 321 319 320 321 319 320 319 321 323 322 323 324 325 324 323 325 325 324 323 322 322 323 325 324 324 326 326 325 325 324 323 324 324 322 321 319 321 319 320 319 320 320 321 322 321 319 314 313 313 316 317 321 321 323 324
318 318 319 320 321 323 324 325 326 327 329 330 330 328 328 326 325 325 324 324 324 324 324 323 324 325 325 324 321 319 318 318 319 318 317 319 321 321 321 321 320 320 321 323 323 325 324 321 319 320 322 324 324 323 324 324 324 325 325 325 324 324 324 323 322 322 323 322 321 320 318 318 318 318 318 318 316 315 312 314 316 316 316 318 321
318 318 319 319 322 322 323 323 326 329 329 329 327 326 326 325 325 324 324 324 324 324 323 323 325 326 327 322 320 318 318 318 318 317 319 319 318 319 320 321 321 320 319 321 322 321 321 322 320 322 323 324 324 323 321 323 322 322 323 323 323 322 322 322 323 321 321 320 320 319 318 318 315 314 317 317 315 312 313 313 314 317 317 317 319
318 318 318 320 321 321 323 323 325 326 327 326 325 325 325 325 325 324 324 324 324 324 323 324 327 327 326 321 320 320 320 319 317 317 319 318 317 319 320 319 318 318 319 318 318 319 320 320 322 321 321 319 319 319 319 319 319 320 320 320 320 320 321 321 319 320 320 320 320 320 319 321 321 320 320 319 317 315 315 314 314 317 318 317 322
316 318 319 319 319 320 321 323 324 325 324 324 324 324 325 325 324 323 323 324 324 324 323 325 325 327 325 321 320 321 319 319 318 318 319 318 319 321 319 318 317 317 316 319 318 319 321 319 319 317 317 317 317 317 317 318 318 317 317 317 317 317 317 316 314 314 316 317 316 317 321 321 321 321 322 320 320 319 317 314 314 316 311 313 319
316 318 319 319 319 320 321 323 324 324 324 324 324 323 324 324 323 323 323 324 324 324 324 325 325 327 325 322 321 321 319 319 319 319 319 319 321 320 319 318 317 317 318 317 317 318 318 319 318 317 317 317 318 316 317 316 315 315 314 313 313 314 315 314 313 313 313 313 312 311 312 313 315 320 321 321 320 318 314 312 310 310 311 312 314
317 317 318 318 319 320 320 322 323 324 323 322 323 321 320 321 322 323 323 324 324 324 323 325 325 326 325 324 322 322 321 321 320 321 321 319 321 321 320 318 316 317 317 317 317 316 317 317 317 316 316 317 316 316 316 314 313 314 314 313 313 313 314 314 314 314 315 312 311 311 312 311 312 313 313 317 320 319 316 313 310 307 307 305 304
317 318 318 318 319 319 320 321 324 324 322 321 322 322 322 322 322 322 323 324 324 323 323 324 324 326 325 323 322 323 322 322 321 321 321 320 319 321 319 317 317 316 317 317 317 315 314 315 315 315 316 317 316 314 314 313 313 313 312 311 312 319 313 313 313 313 313 312 312 312 312 311 312 313 312 311 312 317 317 316 312 309 304 299 301
317 318 318 319 320 320 321 323 324 324 323 322 322 323 323 323 323 322 323 322 323 323 324 325 324 324 323 322 323 321 321 321 320 320 320 319 321 321 319 318 317 316 317 315 313 313 314 314 314 313 314 313 313 313 313 312 311 311 312 311 312 313 314 312 312 313 312 311 311 311 311 312 311 310 310 312 311 311 313 312 312 310 305 301 298
317 318 319 320 320 320 322 324 325 324 324 323 323 324 324 324 324 323 323 323 323 324 324 324 324 323 323 322 322 321 321 321 320 320 320 320 321 320 318 316 315 317 317 316 316 315 316 319 313 312 312 314 314 313 313 312 311 311 311 312 313 312 312 311 313 313 313 313 312 313 312 310 310 310 310 309 309 311 309 311 310 310 308 303 300
315 316 317 318 319 320 321 322 324 325 324 324 324 325 325 324 324 324 324 324 324 325 324 324 324 324 324 323 321 319 321 320 320 320 320 320 319 318 317 316 316 316 316 316 315 314 314 313 313 314 313 314 314 313 313 313 312 312 312 313 313 312 311 311 312 312 311 311 310 310 310 310 312 310 310 309 308 310 309 308 309 311 309 305 303
314 315 316 317 318 319 320 321 322 323 323 322 323 324 324 323 323 324 324 324 324 324 323 323 323 324 324 324 321 319 321 320 319 319 318 319 320 319 318 316 316 317 316 316 315 314 314 313 314 313 313 313 313 312 312 312 313 312 312 312 311 312 312 310 312 312 314 311 310 310 310 310 310 309 309 310 307 309 310 309 310 309 307 305 304
314 316 316 316 316 316 318 320 322 322 322 321 321 322 323 323 323 324 324 324 324 324 324 323 323 323 323 322 322 320 319 320 319 318 318 318 319 319 318 317 317 316 316 315 315 315 315 315 314 314 313 313 313 312 313 314 313 311 311 311 311 308 308 308 310 310 312 311 309 308 309 310 311 310 309 310 309 309 310 310 310 308 306 305 303
317 318 316 316 317 317 318 321 322 320 320 319 319 320 323 323 324 323 324 324 323 323 324 324 322 323 321 322 322 320 319 319 318 317 318 318 318 319 318 317 317 317 316 316 315 316 316 316 314 314 314 315 314 314 314 313 313 312 312 315 311 309 310 309 308 309 310 312 308 308 310 310 312 311 310 311 309 308 310 310 309 309 307 306 304
315 317 318 319 318 319 320 321 321 319 319 319 319 320 320 321 323 323 323 323 323 324 325 324 323 322 322 323 322 321 320 319 318 318 319 319 318 318 317 316 317 316 316 316 316 316 316 315 314 315 314 314 314 314 314 312 311 311 312 312 312 310 309 308 307 309 310 310 310 309 310 311 313 309 309 310 310 310 309 310 309 309 309 308 306
314 313 315 316 319 319 320 318 319 319 318 319 319 320 320 319 319 319 319 321 321 322 322 321 323 323 323 324 322 322 320 318 318 318 318 318 318 318 317 317 318 316 316 316 316 316 315 315 315 314 314 314 315 316 314 313 313 312 312 313 312 310 310 310 310 309 311 311 309 308 309 310 310 308 308 310 309 309 308 308 309 309 309 308 308
315 315 315 315 316 317 318 317 317 318 319 318 318 318 318 317 318 318 318 320 319 319 320 320 320 318 319 321 321 322 320 318 318 318 317 318 318 318 318 316 317 315 315 317 316 315 315 315 315 314 314 314 315 316 315 314 313 314 313 314 312 312 313 313 314 314 317 312 311 309 311 311 310 307 311 310 310 309 310 309 309 309 310 311 310
314 314 315 315 316 317 317 316 319 318 318 318 317 317 318 319 320 319 318 318 319 319 319 318 317 318 318 318 319 319 318 318 319 318 316 317 317 317 317 318 319 314 314 316 314 315 315 315 315 314 314 315 315 314 315 315 316 315 315 314 314 313 313 314 314 314 314 314 314 313 311 311 313 312 310 310 310 309 310 309 309 310 310 309 308
312 313 313 313 312 313 315 316 316 318 317 316 317 319 319 319 319 319 320 320 320 318 318 317 316 315 316 317 319 319 318 319 319 319 318 318 317 317 317 318 318 317 316 316 314 314 315 314 315 314 314 315 315 315 315 315 316 316 316 315 316 314 315 315 314 315 314 314 314 315 313 313 314 313 312 311 310 308 309 307 307 308 308 307 307
313 313 313 313 314 314 314 314 315 315 316 315 317 317 317 318 320 321 321 320 320 319 318 317 318 317 317 315 317 318 318 319 319 319 318 318 318 319 317 316 317 316 316 316 315 314 315 314 313 313 314 313 314 314 317 317 316 317 317 315 317 316 313 314 315 316 317 315 315 314 314 314 313 313 312 312 312 310 308 307 307 306 305 305 305
305 305 305 305 309 312 312 314 315 315 314 315 316 316 316 316 317 318 319 320 320 319 318 319 318 317 318 317 319 319 318 317 317 318 317 317 317 318 317 318 319 318 320 319 318 318 317 315 313 317 316 316 317 316 316 315 315 316 316 317 316 315 314 313 314 314 314 315 313 313 313 314 316 318 314 312 313 312 309 307 305 306 305 305 304
296 297 297 298 298 298 299 303 308 311 313 316 316 316 316 316 317 318 320 321 320 319 319 318 318 318 319 319 319 319 319 319 318 316 317 317 317 318 317 317 319 318 317 318 319 319 318 318 317 314 314 315 316 316 314 308 311 315 316 318 316 314 314 314 313 312 312 314 313 313 315 321 313 309 306 301 300 303 308 309 307 306 305 304 304
295 296 296 296 297 297 298 298 299 300 301 301 303 314 317 317 317 318 319 320 320 319 318 318 318 319 318 319 319 320 320 319 319 318 318 319 318 318 317 317 317 316 315 315 316 316 317 317 316 314 313 314 315 317 303 297 299 307 317 316 315 314 314 314 313 312 312 312 313 314 314 316 313 309 303 298 296 296 296 296 298 302 307 307 305
294 295 295 295 296 296 296 297 298 299 299 300 301 302 304 310 317 318 318 320 319 317 317 318 318 318 319 319 318 318 319 319 320 320 318 318 319 318 317 318 317 317 316 315 314 314 314 314 315 314 313 314 314 312 301 299 297 300 308 316 315 315 314 314 314 314 313 313 313 312 313 316 313 311 306 302 298 295 294 294 294 294 294 295 301
294 294 295 295 295 295 295 296 297 297 298 300 301 301 300 301 302 308 318 317 318 316 316 317 318 318 318 318 318 318 318 318 318 319 318 318 317 318 317 317 317 317 316 315 313 313 312 313 314 314 313 313 313 307 299 299 296 294 299 311 316 315 314 314 314 314 314 313 312 312 312 315 318 318 313 306 301 298 295 294 295 295 294 294 293
294 295 295 295 296 295 295 296 297 298 298 299 301 300 300 301 302 304 305 306 305 304 304 305 307 311 313 315 316 316 316 316 317 317 317 317 317 316 316 315 314 314 314 313 313 312 312 313 314 314 314 314 315 309 300 296 295 294 296 303 316 314 314 314 314 314 314 313 313 313 312 312 313 315 312 309 304 300 298 299 299 298 297 295 294
294 294 295 295 295 295 295 295 296 298 298 299 299 300 300 300 301 301 303 303 302 302 302 302 302 303 304 306 307 308 310 312 315 316 317 315 314 313 314 312 311 312 312 310 310 310 310 311 312 313 314 315 316 308 299 296 294 293 293 298 313 315 314 313 314 314 314 314 314 315 313 313 313 313 314 310 306 302 301 301 301 300 300 301 299
295 295 295 296 296 295 295 295 297 297 298 299 298 299 300 299 300 300 301 302 301 301 301 301 301 301 301 302 303 304 305 306 306 306 307 312 313 315 314 312 312 311 310 310 309 309 309 309 310 310 310 311 314 301 294 294 294 293 293 306 311 314 313 313 312 312 311 311 311 312 313 312 312 312 309 302 303 305 304 304 303 302 299 296 294
296 296 296 297 298 297 297 297 296 297 297 298 299 300 299 299 299 300 301 301 300 300 300 300 301 301 301 300 301 303 304 304 305 305 305 305 306 311 312 313 312 311 311 311 312 312 310 308 308 309 308 308 312 302 292 293 293 292 298 308 309 312 313 312 311 310 309 307 307 311 313 312 311 310 303 297 299 302 305 303 303 301 300 297 295
297 297 298 298 298 297 297 296 296 297 298 299 298 299 299 298 299 299 301 300 300 299 301 301 300 300 300 300 300 302 303 303 303 304 304 304 304 304 307 311 311 311 311 312 313 313 312 311 309 310 312 311 311 305 294 294 294 293 301 309 310 311 311 312 308 307 303 300 302 307 313 312 309 303 295 297 297 303 304 303 302 301 299 298 295
295 295 295 296 298 299 298 297 295 295 296 298 299 299 299 298 299 299 299 298 298 298 299 300 300 300 300 300 300 301 301 302 302 302 303 303 303 303 304 305 305 306 310 313 313 313 313 312 311 311 313 313 312 308 296 295 294 293 300 308 310 311 311 307 305 302 300 299 298 299 305 307 304 298 294 296 298 303 305 304 303 302 300 299 298
294 295 296 296 298 296 295 295 295 295 296 297 297 297 298 297 298 298 297 297 297 298 299 299 300 300 300 300 301 301 301 301 301 301 301 301 302 302 303 304 304 305 305 304 306 312 313 313 312 312 312 312 311 308 299 294 294 294 296 307 310 309 309 305 304 302 300 297 296 296 295 292 292 292 292 293 295 298 304 303 303 301 300 299 298
294 294 296 296 296 296 295 296 296 297 298 298 298 297 296 296 297 296 296 297 297 298 298 298 299 299 300 300 300 300 300 301 302 301 301 301 301 301 302 303 303 304 303 303 304 303 306 308 311 311 312 310 312 310 301 292 294 294 294 299 309 310 305 305 304 302 300 298 296 295 294 292 291 292 292 292 293 293 295 299 299 297 296 299 298
294 294 294 294 295 295 296 296 296 297 297 297 297 296 295 295 296 295 295 297 298 298 298 297 298 298 298 299 299 299 300 301 301 300 299 299 300 300 301 301 300 300 300 300 301 303 304 303 305 307 309 311 313 311 309 293 293 294 293 294 306 309 305 307 304 302 299 298 296 295 294 292 291 291 291 291 291 291 292 294 293 291 292 294 298
292 292 293 294 294 294 294 294 295 296 295 295 295 294 293 294 294 295 296 297 297 297 297 297 297 297 298 298 298 298 298 300 299 299 299 298 298 298 299 299 299 299 300 300 300 302 303 303 302 302 306 310 310 310 303 298 293 293 293 293 296 304 296 306 305 302 300 297 295 294 294 292 291 290 290 291 291 291 291 290 289 289 290 291 293
293 293 293 294 293 294 293 293 294 294 294 294 294 293 293 293 292 294 295 295 295 295 295 295 295 296 296 297 297 298 298 298 298 298 298 297 297 297 298 298 298 298 299 298 299 300 301 301 302 301 303 303 304 306 301 297 296 293 293 293 293 296 296 301 306 305 300 297 295 294 293 290 290 290 290 290 290 291 290 289 289 289 289 291 292
292 292 293 293 293 292 292 293 293 293 294 293 293 292 292 291 293 294 294 294 294 294 294 294 294 295 294 296 296 296 296 297 297 297 296 296 295 296 296 296 296 296 296 296 297 299 299 300 300 301 298 301 304 302 299 293 291 291 291 291 290 291 293 293 305 304 299 297 293 292 290 290 290 289 289 289 289 289 288 288 289 290 294 292 293
292 291 292 292 293 292 292 292 292 293 293 293 293 292 291 292 294 294 294 294 294 293 293 293 293 293 293 294 294 294 294 295 295 295 295 295 295 295 294 295 295 295 295 295 295 295 296 297 298 299 299 301 302 300 296 294 293 293 291 290 290 290 292 292 299 301 295 292 290 290 290 289 289 290 291 290 289 289 288 288 289 292 292 292 290
291 292 293 293 293 292 292 291 291 292 292 293 293 293 293 293 294 294 294 294 293 293 292 292 292 292 292 293 292 293 292 293 293 293 294 294 294 294 294 293 293 293 294 295 294 294 294 294 295 297 299 298 298 300 297 295 295 295 294 294 293 292 293 293 295 293 292 291 290 290 290 290 290 290 290 289 289 288 289 289 289 289 290 290 289
292 293 293 292 291 291 291 291 291 292 292 293 294 293 294 294 294 294 293 293 293 292 292 292 292 292 292 292 292 289 291 292 292 292 292 293 293 293 293 292 292 292 292 292 293 293 293 293 293 294 297 297 298 299 299 299 299 298 296 296 294 294 293 293 293 292 292 292 291 290 291 292 291 290 289 289 289 289 288 288 289 289 289 288 290
291 291 291 291 291 290 291 291 292 292 292 292 292 293 294 293 292 292 292 292 292 292 292 292 292 291 292 292 293 292 291 291 291 292 292 291 291 292 292 292 292 292 291 291 291 291 292 293 293 293 294 295 294 296 299 297 297 295 295 297 295 295 294 293 293 291 293 292 292 292 290 291 289 287 287 288 287 289 289 291 293 291 289 289 288
292 293 292 292 292 292 292 292 294 295 293 292 292 292 292 292 292 292 292 291 292 292 292 292 292 292 292 291 291 290 291 291 290 290 290 291 290 291 291 290 291 292 291 290 290 290 292 292 292 294 296 296 296 299 296 292 293 294 295 295 294 293 292 292 290 290 291 290 288 288 289 289 288 287 287 287 286 287 287 286 284 286 287 286 286
293 293 293 292 292 294 294 293 294 294 294 294 293 293 292 292 292 292 292 292 293 292 291 291 291 291 290 291 290 290 290 290 290 290 290 289 290 291 291 291 290 291 290 290 291 290 290 290 290 292 293 294 295 296 292 292 293 294 294 294 293 291 290 290 290 290 287 287 288 287 287 287 288 288 287 287 286 286 286 286 286 285 285 285 284
Wind_Speed
15 16 17 15 9 8 9 9 8 6 11 12 11 11 8 8 10 9 6 6 5 5 3 4 3 4 3 4 5 5 5 5 6 5 5 4 5 6 6 5 5 4 3 3 3 4 3 3 3 2 1 1 1 1 2 1 1 1 2 3 3 2 0 1 2 2 4 3 4 4 4 4 5 3 1 1 2 3 2 2 3 5 4 4 3
13 11 8 10 9 10 9 9 9 10 11 12 14 14 12 8 9 8 3 3 5 6 4 3 2 3 4 4 5 5 8 7 6 6 6 5 6 6 5 4 5 5 4 4 5 5 4 4 3 2 2 1 1 1 1 4 2 1 3 2 1 2 1 2 3 1 1 3 5 3 4 5 5 4 4 4 4 3 2 3 4 4 4 3 2
13 11 8 10 11 11 9 8 7 10 12 10 12 14 13 10 8 9 7 8 6 5 2 2 1 1 3 4 7 4 4 7 6 5 5 6 6 6 5 5 5 5 5 5 5 4 4 4 4 3 2 2 1 2 1 2 3 4 3 4 2 1 1 1 3 1 2 1 2 5 2 5 4 4 5 5 2 3 2 3 3 4 4 3 3
15 12 10 8 12 12 11 8 8 9 9 9 8 10 11 12 10 9 8 6 5 3 2 2 2 4 4 5 6 8 6 6 7 6 6 6 4 4 4 3 4 3 4 5 4 4 5 4 3 4 2 2 2 2 2 3 2 3 3 4 3 2 1 1 0 1 2 3 1 1 2 5 7 3 3 4 5 3 2 4 4 3 2 3 4
13 13 10 11 12 13 11 9 7 7 8 8 7 8 8 11 12 10 8 6 4 3 4 4 5 6 7 7 7 7 6 6 7 5 5 5 5 4 4 5 5 6 5 4 4 5 5 5 4 3 3 2 3 2 2 3 3 3 3 3 3 3 2 1 0 1 2 1 5 3 2 2 2 7 8 5 5 3 2 3 3 2 3 4 4
13 13 12 13 14 14 12 12 11 10 9 6 6 7 10 9 12 11 8 4 3 5 5 5 7 8 8 8 7 6 6 6 5 7 6 6 6 3 2 3 5 6 5 5 4 3 4 6 4 4 4 3 2 2 3 4 3 3 3 3 2 1 4 2 1 0 1 1 1 2 2 4 7 8 5 3 4 3 3 3 4 3 3 4 5
12 13 13 16 14 11 10 10 11 11 7 5 5 7 7 9 10 12 11 9 8 7 6 6 7 6 7 7 7 7 7 4 3 4 6 4 5 5 5 5 5 6 5 5 4 4 4 4 4 3 3 3 2 2 1 1 3 3 2 2 2 3 3 2 4 3 3 3 1 2 3 3 4 5 4 6 4 4 4 3 3 3 2 4 5
15 18 15 13 12 7 9 8 6 7 7 7 7 7 9 10 10 10 9 8 7 8 7 7 8 7 8 7 7 7 6 6 7 6 6 6 6 4 4 4 5 6 6 5 4 4 4 5 4 3 4 3 3 4 4 4 3 2 1 1 2 2 2 4 3 4 4 0 0 2 1 3 5 7 6 4 6 5 2 3 1 3 3 4 4
16 15 13 14 12 11 12 9 6 9 9 9 9 8 8 9 9 8 9 9 9 8 8 7 8 8 7 7 6 6 8 7 6 6 6 6 6 3 4 4 6 5 4 3 4 4 4 4 5 5 3 3 4 5 4 4 3 4 4 4 2 2 2 2 3 2 4 3 2 2 2 3 5 4 3 5 4 5 1 1 1 2 3 4 5
16 20 15 18 13 15 17 16 14 10 9 7 5 5 6 7 8 9 9 9 9 8 7 7 8 7 6 8 10 8 7 6 7 7 6 4 6 5 5 6 5 6 6 6 4 3 4 5 5 6 5 5 4 4 4 4 4 4 4 4 3 3 2 3 4 4 4 3 3 4 3 3 4 4 2 5 4 2 7 5 3 5 5 2 3
14 15 14 13 12 15 14 15 15 14 10 10 8 8 8 8 9 9 10 9 8 8 7 8 7 7 8 10 11 10 9 8 8 6 5 6 6 5 6 6 5 6 6 6 5 5 4 4 5 4 4 4 5 5 4 3 3 4 4 4 4 4 3 3 3 3 3 4 3 4 5 6 5 3 5 4 4 4 6 4 3 2 5 6 2
12 12 11 12 12 11 12 13 13 14 13 12 11 10 10 9 9 10 9 10 9 9 8 8 8 8 9 11 11 10 10 8 9 7 6 7 6 7 7 7 7 6 5 6 5 5 5 6 5 5 6 6 4 4 4 5 4 4 5 5 4 4 4 4 3 3 2 2 1 3 3 3 4 6 4 6 7 6 8 7 5 3 3 1 3
11 12 13 12 13 13 13 14 14 15 16 16 15 13 11 10 11 12 11 8 8 8 9 8 8 7 9 10 9 8 9 9 8 7 6 7 6 7 7 7 7 6 5 5 4 4 5 7 6 6 6 6 5 5 4 5 5 5 5 5 5 5 3 4 4 3 2 2 2 3 3 2 4 4 6 6 6 5 6 7 5 5 4 4 4
12 14 15 15 14 13 12 12 12 13 14 16 15 13 12 11 10 10 9 7 7 7 8 6 7 7 8 8 8 8 9 8 7 7 6 6 7 7 8 7 7 6 5 5 5 5 5 5 4 4 4 5 6 6 6 5 5 6 5 5 4 3 4 4 4 4 5 4 5 6 6 4 3 4 4 6 6 6 5 6 8 4 4 6 5
11 12 14 14 13 12 11 11 10 7 4 4 5 4 4 4 5 7 7 7 7 8 5 5 6 7 7 7 8 8 8 8 7 7 6 6 6 7 7 7 7 6 7 5 6 6 5 5 5 5 5 5 6 6 6 6 5 5 4 4 4 4 5 6 7 7 7 7 7 6 6 6 5 4 6 4 3 3 4 4 7 10 6 3 4
9 10 9 8 8 7 7 6 6 4 3 3 4 4 5 6 7 6 8 8 8 5 4 5 4 6 7 7 8 8 7 7 7 6 6 6 6 7 8 7 7 7 6 6 5 6 6 5 5 4 4 5 5 6 6 4 4 5 4 4 4 3 5 6 5 7 7 6 5 4 6 5 4 5 5 4 4 5 5 6 6 6 8 6 4
9 9 8 7 6 6 4 4 6 6 5 4 4 4 7 7 7 6 5 4 5 5 5 5 5 6 6 7 7 6 7 6 7 6 7 6 6 8 8 8 7 7 6 6 6 5 5 5 4 5 6 6 6 6 6 5 5 4 5 5 5 4 5 4 5 7 5 6 5 5 4 5 4 4 4 5 4 4 5 4 5 7 6 9 5
9 7 7 8 7 8 7 6 8 8 7 6 7 6 6 7 8 8 7 6 4 4 4 5 5 6 6 7 6 6 6 6 6 6 6 6 7 8 8 8 7 7 7 5 5 5 5 5 5 5 5 5 5 5 5 5 5 5 4 4 4 4 4 4 4 5 5 4 4 5 4 5 3 4 4 4 4 4 6 6 5 5 8 8 6
10 9 9 8 7 8 10 11 11 9 7 7 6 6 6 4 4 5 6 4 3 3 3 3 4 4 4 6 6 5 5 5 5 6 5 7 8 8 8 8 7 7 7 6 6 6 5 4 4 4 4 5 5 5 5 5 5 5 4 4 3 4 4 4 3 5 4 5 4 4 5 5 4 4 5 5 4 6 4 5 6 6 6 7 8
10 9 9 10 10 8 9 12 13 11 9 5 4 3 3 2 4 4 4 4 3 2 3 4 4 5 4 4 4 4 4 6 6 6 6 7 8 8 8 8 8 7 6 6 6 6 5 5 4 4 5 5 5 5 6 5 5 5 5 5 4 4 4 4 2 2 3 4 4 5 4 4 4 5 5 5 4 5 5 7 6 7 7 6 7
7 6 6 7 6 4 2 2 5 5 5 4 2 2 1 2 2 3 5 5 5 4 3 3 3 4 5 4 4 4 5 5 6 6 6 6 7 7 8 7 7 7 6 6 6 6 5 5 4 4 4 4 5 5 4 4 4 5 5 5 4 5 5 4 5 5 4 4 4 4 4 4 4 5 4 5 6 5 7 7 6 7 7 6 8
9 9 10 8 7 5 2 3 4 4 2 1 1 2 1 2 3 3 4 4 4 4 4 3 4 5 5 4 4 4 5 5 6 6 6 6 6 7 7 7 7 7 6 6 6 6 5 6 5 5 4 4 4 4 5 5 4 4 4 4 4 4 4 4 5 5 5 5 4 4 4 3 3 4 4 4 4 4 6 7 7 6 6 5 4
4 7 9 8 8 7 6 5 4 3 2 1 0 3 4 3 3 3 4 3 4 4 3 2 2 4 4 4 4 4 5 6 6 5 5 5 5 6 7 7 6 6 6 6 6 6 6 6 6 5 5 5 4 4 5 5 4 4 4 4 4 5 5 5 5 5 5 5 5 4 2 2 3 4 4 4 5 4 3 6 5 6 6 3 3
2 3 4 6 5 6 7 6 2 2 2 2 1 4 4 2 7 8 9 6 3 3 7 8 8 3 1 3 3 4 6 6 6 5 5 4 4 5 5 6 5 6 7 4 6 6 6 6 6 6 6 5 5 5 6 6 5 4 4 5 4 4 3 3 4 4 4 5 5 4 2 2 2 3 4 4 5 4 4 4 5 4 5 5 4
3 5 8 8 7 5 5 6 5 2 1 3 5 5 2 4 3 6 4 3 4 4 5 6 5 7 12 12 9 9 7 5 7 5 6 6 5 5 4 4 4 5 5 4 5 6 5 6 6 7 6 6 6 5 6 6 5 4 5 5 5 4 3 4 5 4 5 5 5 5 4 3 2 3 5 4 4 5 4 6 5 4 4 5 5
8 8 8 6 5 7 9 7 7 7 7 8 7 5 8 9 9 7 6 7 8 7 6 3 3 5 9 12 11 10 8 12 5 4 6 5 5 4 4 3 4 5 4 4 6 5 5 6 6 6 6 6 6 6 5 6 5 5 5 5 5 4 3 4 4 4 4 3 4 4 4 5 4 5 4 4 4 5 5 5 5 4 4 4 5
11 10 9 8 11 9 4 6 7 5 7 7 5 6 7 6 6 7 8 8 8 6 6 6 7 3 4 7 7 8 5 4 1 4 1 4 3 3 4 4 4 6 5 4 6 6 5 5 6 5 6 7 7 6 6 6 6 5 5 5 4 3 3 3 3 3 2 3 4 4 4 4 5 5 5 5 5 4 5 4 3 4 3 4 5
10 10 8 7 6 6 7 9 8 5 5 6 6 7 7 6 6 7 7 4 2 4 5 2 1 5 7 6 6 3 6 5 1 2 3 1 2 3 1 2 0 3 4 4 6 6 4 4 5 5 5 5 5 4 4 4 4 4 5 4 5 5 3 3 4 4 3 3 3 3 3 3 3 5 5 5 6 5 4 4 2 3 3 5 4
15 14 12 12 9 7 5 5 6 6 9 8 6 6 5 6 4 5 6 4 3 2 1 1 2 5 6 6 5 4 4 3 1 1 1 2 1 2 3 3 4 2 3 4 3 3 2 0 2 4 4 4 6 5 5 5 4 4 4 7 6 4 4 3 3 3 2 1 2 2 3 3 3 4 8 7 6 6 6 5 2 4 4 3 2
13 12 12 13 12 13 13 13 13 10 8 6 4 5 3 3 3 1 4 5 4 1 4 5 3 2 3 3 2 1 2 1 1 1 1 2 1 1 2 4 4 4 3 4 4 4 5 5 5 3 3 4 4 3 6 9 7 5 4 6 4 4 4 4 4 2 1 1 1 1 2 5 5 6 9 11 11 10 8 6 5 5 4 3 3
13 12 13 13 14 15 16 17 15 14 13 12 11 3 3 4 4 4 5 5 3 2 4 7 4 1 2 4 4 0 1 1 1 1 3 3 3 1 2 3 3 3 3 3 4 4 4 4 4 4 4 3 3 3 10 10 9 9 7 6 5 4 4 5 4 4 4 4 4 2 2 4 5 5 5 11 12 12 12 11 9 7 4 4 4
13 12 12 13 13 13 13 12 12 13 13 11 11 13 12 8 2 7 7 6 6 5 6 5 6 2 2 2 2 3 1 1 1 2 2 4 6 3 2 2 3 3 2 2 2 3 3 3 3 2 2 4 4 7 11 11 9 8 7 6 6 6 5 5 5 6 5 5 5 3 3 3 4 5 5 7 9 11 11 11 10 10 9 9 5
12 12 11 10 10 10 10 10 10 10 10 10 10 13 12 12 12 5 3 6 3 3 5 7 7 7 7 5 3 4 4 2 2 4 6 8 4 2 1 0 1 1 1 1 2 3 3 3 3 3 3 3 3 5 8 11 11 8 8 7 6 6 6 5 5 5 5 5 4 4 4 4 4 10 8 6 7 7 8 11 11 10 8 9 10
11 10 9 8 8 8 9 9 9 9 8 9 12 11 10 10 12 15 12 11 11 12 11 10 7 5 3 3 7 9 9 10 11 10 9 4 2 2 1 1 1 1 0 0 0 2 2 3 3 4 4 4 4 7 6 8 9 9 8 6 5 6 5 6 6 6 5 5 6 6 5 4 4 5 6 7 7 7 7 6 5 5 5 5 7
10 10 9 9 9 10 12 12 11 9 10 12 13 11 11 13 12 11 9 10 11 12 11 10 9 9 8 7 7 4 3 3 3 5 6 4 3 3 3 2 2 1 1 2 3 2 2 3 4 4 4 5 6 7 6 10 10 10 9 7 5 5 5 6 6 6 5 6 6 5 6 6 6 5 5 7 7 7 6 6 5 5 5 4 4
9 10 10 11 10 9 9 8 7 10 11 11 10 10 11 10 10 10 9 10 10 12 11 11 11 10 11 10 10 8 8 7 7 6 4 0 2 5 5 3 3 3 2 2 3 3 3 2 2 1 2 4 5 2 5 8 10 9 8 5 4 5 5 5 5 4 4 4 3 3 5 5 4 4 7 13 10 7 6 7 7 6 5 5 4
6 7 6 4 4 7 6 7 8 9 10 9 8 9 9 10 11 11 10 11 11 11 10 10 10 11 10 10 11 8 7 7 7 8 6 5 4 4 3 0 3 3 3 4 5 4 4 4 4 4 4 4 5 5 6 7 8 9 6 3 3 4 5 5 4 3 3 3 3 4 4 5 3 4 7 13 14 11 6 6 6 5 5 5 5
4 4 4 4 4 4 5 8 9 9 7 7 8 9 9 10 10 10 10 11 11 11 10 10 9 9 10 10 10 9 9 9 8 7 6 6 4 1 1 0 2 3 4 6 6 6 5 4 4 5 6 5 6 7 10 10 10 10 7 5 6 6 5 4 3 4 3 2 1 2 9 5 5 4 8 14 14 11 7 6 6 7 6 5 4
4 6 6 5 5 5 5 6 8 8 6 5 8 10 10 10 9 10 10 10 10 9 9 9 9 8 9 9 8 8 8 9 9 8 8 8 7 7 4 1 0 1 4 7 6 6 6 5 5 6 9 8 6 7 10 10 10 10 8 4 6 6 5 3 6 4 2 3 3 6 4 7 7 7 11 13 12 8 7 7 7 7 6 6 6
3 3 3 4 5 9 10 11 10 9 9 9 7 8 9 9 8 8 9 8 8 7 6 6 7 7 7 7 6 6 7 6 6 7 8 8 7 8 8 7 6 6 7 4 4 6 7 7 7 7 6 6 7 6 9 13 11 12 11 6 5 5 5 5 6 7 5 3 4 5 6 9 10 11 10 10 9 9 6 5 6 6 6 5 4
9 10 8 8 9 9 10 10 8 9 8 7 8 9 8 7 6 7 7 5 4 4 5 5 5 6 7 7 7 7 8 7 6 6 4 5 6 6 6 6 7 8 6 7 6 3 4 7 8 8 8 6 6 7 8 13 13 12 12 9 5 5 5 7 7 6 6 6 5 5 5 8 11 12 12 12 11 11 9 6 5 5 3 5 8
8 10 8 6 8 8 8 8 8 8 7 7 7 8 6 6 5 6 5 4 5 5 5 5 6 6 6 6 7 8 7 6 7 8 9 8 8 7 6 7 7 6 7 7 6 8 7 5 5 5 5 7 8 12 7 11 13 13 13 12 6 5 3 7 6 6 5 5 6 6 6 7 12 13 13 13 13 13 13 9 7 9 11 13 7
8 8 7 6 7 8 8 6 6 6 5 5 5 5 4 5 6 6 6 6 6 6 7 7 7 7 7 7 8 8 7 6 7 8 8 7 7 7 8 8 7 7 7 8 8 7 6 7 6 5 6 7 7 8 12 10 13 14 14 13 10 6 5 5 8 7 6 6 5 3 3 8 13 13 13 14 14 14 11 8 11 11 10 10 7
7 6 5 6 7 7 7 6 6 6 6 6 6 6 6 6 6 5 6 7 7 7 7 8 8 8 9 9 9 9 9 8 8 8 8 7 8 7 7 6 7 6 7 7 7 8 7 7 8 8 6 3 3 5 4 7 10 16 14 13 12 11 6 4 5 8 7 9 9 8 5 9 11 13 13 13 13 11 9 11 10 10 9 6 3
5 5 4 5 7 6 6 6 6 6 6 5 5 6 6 7 6 6 7 7 7 7 7 7 7 7 8 8 8 8 8 8 8 8 8 7 7 7 7 7 7 7 7 7 7 6 7 8 8 8 4 0 3 4 3 6 9 7 5 2 6 9 12 8 6 5 8 8 10 15 15 13 13 13 14 13 10 11 12 10 10 8 6 4 4
3 3 3 5 6 6 6 6 6 5 5 5 5 5 6 5 6 7 7 8 8 7 7 7 7 7 7 7 7 7 7 7 7 8 8 7 8 8 7 7 7 7 7 6 7 7 7 8 8 9 3 2 5 4 5 4 4 6 4 4 1 6 11 12 9 11 13 15 17 17 16 15 14 13 11 8 7 6 9 9 8 6 5 6 6
3 1 4 7 6 5 4 5 5 4 4 4 5 5 6 6 7 7 8 8 7 7 6 5 6 6 6 6 6 6 6 7 6 7 7 7 7 7 7 7 7 8 9 9 9 9 8 7 7 7 7 6 2 5 6 3 4 3 4 5 5 5 2 5 6 7 10 10 10 10 9 9 8 10 10 9 9 7 6 6 5 5 6 7 6
5 7 6 7 6 4 4 4 5 4 4 4 5 5 6 7 6 7 7 8 8 7 7 7 7 6 5 5 5 8 8 6 6 6 6 7 8 8 7 7 6 7 8 8 9 9 9 8 8 6 6 3 4 7 3 7 8 7 5 5 5 3 2 2 5 6 8 9 9 8 9 7 8 7 6 5 4 5 5 5 5 4 4 4 6
6 5 7 6 4 4 4 4 4 3 4 5 5 4 5 5 4 4 4 5 5 6 7 7 7 5 5 5 6 6 5 6 6 6 5 4 5 6 7 7 4 4 5 5 7 7 7 8 8 8 7 7 4 3 7 7 2 9 10 9 4 5 4 3 7 13 10 8 6 6 7 7 7 7 6 6 5 5 4 4 4 4 4 3 5
5 6 6 5 3 2 4 3 3 3 3 3 2 2 3 3 3 3 4 4 3 4 5 5 5 5 5 6 6 6 5 6 6 6 7 7 6 7 6 5 7 11 13 6 2 4 7 8 8 8 7 7 8 7 7 7 10 11 14 15 11 10 8 8 7 7 9 10 6 5 4 6 8 6 7 6 6 5 5 4 5 6 6 7 7
5 6 5 4 3 3 4 2 1 3 3 2 2 3 4 4 4 3 3 3 3 3 4 5 5 5 5 5 5 5 6 6 6 6 7 7 8 7 8 10 9 10 10 14 15 13 10 8 6 7 10 12 13 7 10 12 11 13 15 15 14 16 16 16 14 8 4 3 6 7 4 0 2 5 7 6 6 6 6 7 7 6 6 7 7
Wind_Direction
132 140 159 176 158 119 125 128 134 116 108 105 96 96 106 131 129 146 168 157 153 153 158 167 165 169 166 154 160 157 121 97 88 89 101 131 135 129 142 153 157 157 159 149 126 130 128 123 118 104 117 147 155 198 178 165 209 148 117 100 123 114 103 195 230 150 116 78 85 101 94 100 101 92 35 74 108 60 37 48 65 84 80 85 88
128 164 163 113 138 136 133 134 133 120 101 107 112 124 147 154 145 140 144 136 179 164 164 169 206 174 154 171 141 127 109 106 99 90 103 102 99 107 119 126 135 151 149 133 127 130 130 125 137 153 156 186 228 256 165 157 201 143 121 92 155 138 185 205 219 116 29 138 134 99 75 55 71 50 349 347 39 40 8 33 41 56 75 81 81
155 158 121 148 136 122 118 123 122 109 107 119 140 141 142 144 151 142 155 170 187 168 183 215 240 183 152 157 138 111 110 129 121 124 108 106 112 124 136 143 143 147 142 130 133 134 129 130 149 149 171 178 207 241 215 128 139 136 155 150 147 70 125 230 204 200 157 142 137 103 141 105 80 53 348 337 24 61 360 27 48 53 56 79 84
167 136 139 141 126 118 116 123 106 97 115 147 152 136 132 143 149 151 161 178 161 170 151 207 162 126 103 116 119 122 135 117 114 117 113 107 109 112 108 133 141 142 129 139 140 139 139 149 152 147 165 172 149 220 174 180 140 157 157 156 140 129 170 255 216 159 132 117 39 141 170 117 117 98 109 325 350 24 23 39 29 61 69 73 75
143 125 147 127 111 108 118 117 96 124 149 162 147 135 138 141 147 157 157 175 170 152 183 173 131 104 102 95 99 99 91 103 114 113 126 132 122 109 131 119 112 100 112 116 111 130 149 157 148 147 132 126 132 96 244 167 181 172 187 163 167 150 171 145 324 66 101 170 142 94 49 50 132 129 101 9 323 338 51 42 48 33 57 71 80
123 131 127 111 107 111 122 121 129 144 160 166 137 149 146 149 145 150 143 156 172 186 181 158 130 127 123 120 119 114 118 121 130 143 143 132 150 156 108 95 90 102 99 92 96 105 121 138 155 151 148 153 141 149 158 155 167 174 198 171 162 147 144 115 113 352 106 1 89 151 165 162 140 161 117 136 300 333 24 48 42 11 26 66 75
85 78 84 104 98 107 122 123 132 140 153 148 147 162 160 149 147 145 152 171 181 175 172 138 120 128 129 132 134 136 139 152 142 137 133 129 112 115 113 99 110 104 103 108 102 96 96 116 146 140 145 162 174 104 149 150 174 164 143 140 169 139 109 119 148 142 62 8 5 55 76 81 110 127 112 135 96 329 9 19 14 5 53 75 81
84 91 90 90 111 121 107 103 116 132 137 155 164 179 165 155 150 150 158 167 172 170 167 148 132 137 137 140 144 142 135 129 120 119 117 123 112 122 116 127 122 126 133 136 131 104 96 93 107 144 149 152 113 110 103 101 98 89 137 116 104 113 118 128 143 143 136 202 28 64 66 86 83 81 126 144 133 136 345 3 341 11 54 69 88
102 103 111 120 130 122 122 112 114 143 160 171 177 174 165 157 154 154 162 168 174 169 157 152 139 144 146 142 132 130 124 124 121 118 116 121 122 106 92 94 75 63 68 78 101 114 105 79 71 80 113 111 118 94 89 86 88 96 97 93 107 111 124 150 113 153 125 143 103 28 63 82 82 92 105 122 137 127 95 175 103 355 44 65 93
118 130 151 149 150 138 141 147 159 167 164 171 165 173 172 161 161 166 170 173 171 165 158 151 145 141 137 135 132 133 125 119 114 119 125 116 111 117 117 88 70 69 69 68 63 54 65 79 70 56 83 121 100 104 87 71 68 82 98 100 94 82 72 100 124 132 122 147 143 153 106 94 79 70 74 107 84 87 144 163 163 141 119 111 88
130 142 148 147 150 148 145 154 158 152 154 164 170 181 181 177 174 176 175 172 166 161 157 162 159 155 147 141 136 136 133 126 120 126 121 118 122 122 109 101 88 78 73 62 72 79 67 65 58 52 69 90 107 95 97 92 73 74 66 64 64 76 66 59 64 76 112 111 105 125 144 153 164 152 157 140 144 128 113 130 147 181 138 126 169
132 133 136 149 149 152 155 154 155 157 161 165 176 181 185 185 178 174 176 174 168 166 163 181 168 160 140 137 135 138 136 134 137 147 145 139 138 126 114 102 97 87 77 84 77 72 77 73 65 55 55 60 74 102 89 88 75 64 60 61 59 62 62 61 57 60 50 49 59 93 111 121 104 124 149 137 139 150 142 147 157 136 87 69 140
135 144 150 157 160 164 166 166 164 166 169 172 174 180 185 185 182 176 180 175 170 171 176 191 163 139 129 131 133 134 133 138 141 144 150 142 137 126 119 118 112 103 104 85 71 82 88 75 66 62 60 60 66 76 80 67 63 62 61 59 58 59 71 88 84 84 114 113 83 46 81 88 122 119 117 126 127 129 135 140 144 145 139 148 162
150 153 161 165 167 170 165 164 173 180 175 172 174 178 184 184 179 172 174 182 173 183 181 170 136 127 125 135 138 135 138 139 142 146 153 148 139 138 134 134 131 137 126 119 118 94 87 97 92 78 71 65 69 76 76 75 75 76 74 73 69 57 55 53 57 64 79 100 90 75 64 66 68 95 118 117 125 131 148 151 146 143 143 158 170
148 155 165 166 163 164 165 170 172 171 156 152 161 174 180 176 165 171 173 188 186 191 172 138 133 122 128 138 136 136 139 138 145 148 147 142 140 135 131 127 130 133 121 128 108 99 96 94 100 101 91 79 77 79 82 81 78 72 72 79 64 55 49 46 39 50 54 59 63 73 74 61 53 63 97 105 127 136 154 185 145 141 156 159 140
140 148 151 149 146 150 159 161 145 129 146 141 158 161 161 179 182 181 184 188 186 175 148 131 123 121 131 137 138 135 136 135 139 139 138 140 142 124 130 128 127 121 117 111 110 113 113 112 112 107 90 86 89 91 88 82 74 79 71 69 56 36 57 51 46 57 59 62 66 57 57 52 67 79 96 122 132 165 174 166 149 149 141 122 105
139 153 154 139 110 97 119 142 127 138 161 179 182 186 181 178 180 174 179 198 191 165 149 142 132 124 139 136 133 132 137 139 143 141 138 141 125 123 128 128 122 117 120 120 124 117 117 118 107 104 106 109 103 104 104 105 102 98 94 86 84 69 72 67 58 65 58 61 58 62 71 60 49 59 59 60 66 98 109 107 142 152 151 130 136
129 116 118 127 132 141 153 149 146 154 171 185 194 205 199 187 183 171 175 184 187 160 148 148 139 134 140 137 134 142 142 137 136 136 130 116 110 117 118 120 125 127 127 132 119 121 125 120 119 120 119 116 122 119 118 116 108 107 111 107 114 99 86 67 66 71 60 53 41 31 30 38 15 52 53 57 71 86 95 117 144 157 139 136 140
124 124 129 135 151 167 171 155 151 158 178 191 197 204 200 188 180 165 165 175 162 149 138 121 124 125 128 137 136 140 126 124 128 126 115 111 120 125 125 130 125 123 124 122 120 123 122 126 122 123 121 126 125 124 123 128 127 124 126 129 119 106 111 105 91 93 87 81 72 51 31 30 7 19 15 24 59 75 78 65 63 86 108 124 132
132 138 147 154 164 182 187 161 157 164 171 177 198 228 219 156 150 140 125 134 141 139 114 125 126 120 117 111 131 134 119 129 131 122 115 118 125 126 126 125 134 129 131 130 129 132 136 131 128 131 128 127 128 135 136 139 130 139 142 129 130 115 117 120 93 73 95 89 73 60 44 41 19 35 16 4 37 55 63 58 64 84 94 103 104
123 133 144 152 151 166 178 98 121 128 154 155 182 255 180 116 125 136 146 150 150 136 115 113 99 116 119 118 131 135 123 128 121 117 118 120 123 126 131 136 127 133 137 134 139 141 143 141 138 140 145 139 142 146 143 135 136 144 150 147 151 136 129 131 114 93 88 87 82 71 51 31 40 46 30 29 38 51 68 68 72 87 95 109 111
140 144 153 163 157 153 181 101 91 113 122 100 101 357 77 103 148 160 153 137 123 114 121 112 103 129 134 128 131 135 130 121 117 117 118 121 124 127 133 130 133 149 146 147 149 151 147 148 153 160 156 157 145 143 131 124 128 127 128 134 145 121 110 116 108 109 111 116 102 83 43 20 38 59 48 51 58 79 93 84 82 92 98 97 122
140 143 140 146 148 151 134 112 118 131 124 103 77 58 87 266 195 175 140 102 50 97 105 91 90 125 142 145 128 126 121 116 109 109 109 117 123 126 135 137 139 154 156 153 157 157 158 160 158 161 158 160 168 143 132 124 135 138 112 120 135 131 136 140 135 141 135 128 114 118 112 59 38 52 46 51 58 57 79 99 101 104 106 114 140
15 27 55 48 59 90 90 68 47 140 167 169 213 131 164 134 45 45 59 79 111 39 56 44 13 8 99 119 121 102 97 97 98 99 102 111 118 131 140 144 149 156 165 165 159 161 162 162 158 163 162 169 168 149 147 148 161 156 133 126 125 135 152 143 148 163 143 127 133 113 122 108 75 66 45 58 62 62 63 82 84 83 107 106 127
25 49 52 54 67 82 96 142 183 279 209 53 41 38 19 60 56 68 78 93 74 85 81 53 65 43 23 10 11 25 38 87 116 127 141 142 144 146 147 159 143 157 176 146 171 162 164 165 162 166 165 159 168 159 157 160 163 153 148 141 145 154 158 138 139 147 157 151 145 151 172 138 106 75 57 76 83 75 64 77 78 63 74 88 78
55 54 54 51 56 46 32 20 27 14 29 63 53 32 16 20 43 33 25 18 24 35 63 76 42 56 68 70 66 68 37 357 336 150 152 148 146 140 147 165 144 175 192 150 168 171 170 175 173 167 166 164 170 171 161 164 161 158 150 161 160 154 147 133 141 130 131 131 117 153 172 132 103 110 116 105 95 97 82 73 81 76 82 88 101
59 55 61 63 67 60 35 53 38 48 77 84 70 68 75 71 63 62 44 37 31 38 34 32 78 95 85 100 113 123 116 123 295 331 321 136 123 161 171 190 177 173 182 159 175 172 183 169 180 158 168 169 172 174 171 164 162 153 150 153 145 132 78 61 46 49 60 99 97 107 121 124 129 132 130 126 115 98 91 82 80 88 75 79 61
78 75 65 67 77 75 67 71 53 38 75 83 55 53 51 53 50 65 80 78 121 100 88 72 134 114 97 93 105 137 147 188 250 50 358 348 76 37 333 249 328 189 172 150 170 181 192 167 186 179 176 171 150 117 106 108 128 139 128 125 103 104 120 91 74 70 73 86 106 106 93 85 127 146 132 139 130 127 114 98 98 82 62 61 59
52 49 49 43 39 46 54 63 106 87 70 75 74 79 78 76 82 117 143 140 109 68 70 86 15 96 112 129 152 162 164 186 154 257 99 306 35 44 67 54 62 51 60 59 65 70 49 341 73 103 121 109 117 132 131 134 118 91 109 115 134 149 133 127 145 150 155 106 78 104 112 112 83 135 136 126 132 144 136 131 148 122 119 123 110
67 59 57 60 57 57 54 48 40 38 37 33 82 106 104 108 116 90 69 63 56 30 76 74 30 47 73 86 63 38 92 144 212 320 319 330 326 70 89 82 78 78 75 81 77 70 75 78 102 94 91 117 130 141 128 114 111 117 99 121 137 160 147 164 181 183 188 179 167 163 152 103 110 128 129 122 114 106 111 130 158 144 141 114 104
74 69 63 58 50 45 47 46 41 36 35 37 21 10 118 126 121 88 81 107 121 213 117 128 120 50 73 108 129 206 176 177 123 93 326 320 260 193 130 115 114 116 117 109 95 91 96 106 123 144 149 146 158 148 142 126 114 113 119 133 141 160 169 176 189 195 200 195 204 181 155 141 126 127 129 126 119 116 113 107 94 88 96 134 126
78 74 69 62 55 51 49 46 40 37 35 27 34 37 34 26 54 129 141 155 161 157 125 100 91 77 329 49 60 9 295 208 170 60 36 301 261 154 149 149 131 117 125 87 88 122 116 116 121 141 179 188 182 178 158 140 123 130 143 146 154 160 175 188 198 202 195 193 209 184 167 183 154 154 144 124 115 118 118 114 109 101 87 69 92
72 70 69 66 64 62 58 53 48 37 33 23 26 41 38 35 26 360 92 97 76 73 99 127 153 171 191 170 148 181 210 213 125 189 203 203 208 130 162 76 159 176 120 131 143 126 135 144 143 164 219 243 237 222 176 155 143 148 167 155 163 169 175 191 196 206 198 190 193 195 192 197 188 167 153 145 134 119 114 118 113 100 88 96 91
66 63 60 64 65 58 55 55 50 41 34 32 39 38 37 37 40 42 39 53 55 55 55 60 75 81 89 150 170 158 177 172 180 185 181 184 148 172 187 152 114 57 69 17 152 164 181 171 184 180 203 224 230 242 202 138 137 149 173 184 163 172 181 187 199 204 205 192 191 184 190 195 190 172 160 155 143 137 138 131 123 115 117 91 75
64 60 54 53 54 52 47 38 31 34 32 33 33 28 29 33 32 41 42 45 48 47 40 39 40 38 46 53 52 33 8 359 113 146 144 147 175 146 139 132 131 155 229 258 261 249 213 210 211 208 201 222 232 230 181 160 156 162 178 185 182 176 182 190 199 203 202 203 197 189 190 197 187 178 172 164 149 150 144 139 129 125 114 97 86
64 65 55 53 49 59 61 48 33 33 36 37 34 27 34 29 27 32 35 40 40 39 33 28 25 24 26 23 19 24 33 43 37 40 33 108 178 172 160 168 175 218 225 241 256 234 250 240 239 285 278 244 249 217 172 165 163 162 167 180 182 181 186 190 195 194 188 198 205 194 201 210 185 168 191 169 154 147 144 143 137 126 105 97 81
90 93 93 87 78 72 68 64 51 44 40 32 28 35 37 31 29 23 25 33 34 33 28 24 23 17 15 13 11 12 28 32 26 23 30 44 26 354 308 232 183 212 241 261 259 253 226 217 231 224 227 234 241 230 194 174 165 162 160 191 197 197 191 191 197 156 147 165 196 199 197 210 167 186 165 157 151 145 146 145 136 127 126 119 127
94 90 92 97 97 80 63 64 55 44 40 32 24 27 35 33 28 28 34 33 29 26 18 22 21 14 8 7 10 13 13 11 18 18 10 3 15 73 68 352 292 275 249 234 237 250 253 229 224 232 219 214 222 217 195 183 177 179 181 183 194 194 203 188 137 127 123 111 14 222 200 176 174 168 157 157 154 145 144 150 142 136 138 138 147
89 90 88 78 72 85 75 59 57 53 38 44 31 26 30 37 28 30 31 31 30 21 14 11 8 6 6 7 11 16 13 5 5 359 359 355 354 342 338 8 293 215 246 256 236 227 248 242 218 208 213 216 220 219 197 192 183 185 197 209 195 189 192 154 135 121 99 87 64 38 91 147 151 142 154 150 153 149 149 156 155 148 154 167 180
60 62 103 96 72 60 50 46 46 43 34 28 28 35 37 37 38 39 36 29 17 11 5 11 9 10 10 9 9 8 3 2 354 348 344 340 336 340 339 337 333 339 329 310 246 239 235 235 236 243 235 206 190 188 193 193 189 192 201 202 199 186 186 159 154 150 124 92 84 91 78 100 114 118 115 108 106 123 146 159 150 162 162 188 159
37 31 31 65 60 58 57 54 51 43 37 34 34 41 35 31 37 38 32 14 2 2 9 11 9 9 8 5 2 2 357 352 349 342 332 331 331 325 322 325 322 325 330 323 319 287 244 242 234 220 219 214 193 185 187 187 192 194 195 195 192 203 170 157 163 157 150 142 130 120 119 126 121 115 112 106 101 100 107 112 126 140 166 153 136
46 33 33 56 62 60 60 59 51 44 42 37 47 49 33 23 29 32 8 343 355 358 3 3 6 3 360 359 357 354 355 355 352 353 352 345 337 332 320 316 313 313 313 308 306 310 308 283 264 253 232 216 206 194 177 188 195 195 189 192 190 206 165 147 145 154 152 154 152 148 143 143 124 118 114 111 107 102 100 95 102 111 110 117 131
43 26 21 55 68 65 62 56 45 50 44 43 57 56 32 16 30 12 356 358 1 4 7 7 4 357 355 354 351 352 353 354 349 347 348 344 341 339 333 327 314 303 298 300 303 301 300 296 291 266 245 236 219 203 185 186 197 191 189 187 196 200 127 172 154 166 164 131 98 91 104 136 128 124 120 117 111 104 94 114 123 101 99 109 112
45 30 27 52 61 64 61 45 39 40 37 36 42 43 37 32 18 359 9 7 6 6 13 13 9 5 5 2 0 357 353 346 344 347 346 345 340 337 334 330 325 316 308 297 292 298 298 300 293 290 268 261 343 333 251 204 193 192 187 186 188 212 210 189 185 164 157 155 147 137 147 143 128 126 120 115 115 110 117 112 98 100 93 88 94
53 25 30 67 73 67 57 54 51 45 40 38 41 44 29 25 0 13 11 13 9 11 17 11 7 4 360 357 354 350 345 347 344 340 336 333 328 332 331 330 334 329 324 315 301 298 299 295 294 290 315 328 131 125 88 45 34 349 321 202 191 203 226 223 182 170 151 159 152 146 150 147 138 124 115 106 101 111 117 111 110 108 104 78 71
74 35 41 81 71 60 57 59 48 37 36 33 31 43 41 23 18 23 19 14 10 12 13 6 3 357 353 350 346 340 340 339 342 347 345 339 341 340 339 335 337 333 333 335 333 345 346 342 333 316 310 58 57 55 66 80 104 119 93 40 7 224 227 225 198 164 158 145 149 150 152 143 127 124 120 124 129 130 117 114 112 99 87 96 103
105 44 45 72 67 55 51 61 60 33 26 17 34 37 45 36 32 27 23 15 12 10 5 0 357 350 347 344 343 340 341 345 350 350 350 351 350 349 348 350 352 350 348 346 344 340 334 336 331 336 333 322 338 114 127 112 112 94 105 96 52 18 25 115 101 107 111 124 132 134 138 136 126 123 113 118 120 130 121 120 114 104 102 113 114
85 69 75 66 57 47 44 63 61 20 358 19 43 43 43 43 37 31 24 15 6 357 358 350 346 342 333 342 354 353 351 343 345 350 351 348 345 341 340 341 348 347 343 335 334 330 326 320 313 311 320 319 297 314 286 154 146 131 99 65 80 60 35 69 102 110 122 130 134 120 111 109 109 98 99 94 105 112 115 107 91 92 105 109 115
98 90 85 86 68 49 40 54 45 7 14 39 36 38 48 54 47 44 49 35 4 356 348 343 336 336 336 358 354 345 335 336 338 341 334 328 326 326 322 322 323 330 320 327 323 320 314 309 301 294 292 296 281 244 256 288 219 143 133 125 124 121 120 147 158 140 119 108 113 122 123 121 119 121 116 121 120 109 94 84 98 101 95 82 86
119 116 119 116 114 101 80 52 36 6 31 54 17 60 77 78 64 57 60 50 19 356 346 335 329 332 332 341 337 332 330 333 327 319 318 313 304 297 294 300 312 314 315 313 281 292 294 302 302 285 263 260 260 237 198 172 163 143 141 136 147 140 127 121 127 129 129 132 131 135 138 142 139 131 133 136 145 143 131 114 110 111 113 99 88
111 109 107 112 126 112 97 90 71 19 15 335 304 70 62 58 55 44 55 41 359 337 320 309 313 313 322 328 334 337 334 325 320 317 314 311 310 309 300 301 295 297 305 317 323 319 317 303 283 291 295 277 257 218 174 176 171 164 155 147 134 128 131 131 124 103 31 89 118 114 99 340 114 128 135 151 157 152 156 142 132 124 121 112 111